Overview Statistics Trail Chart Weather Telemetry Raw packets
 

This is the latest recevied weather packets stored in our database for station/object EB1BWO-11. If no packets are shown the sender has not sent any weather packets the latest 10 day(s).

<< 17 18 19 20 21 22 23 >>
Time Temp. Humidity Pressure Rain* Wind** Luminosity Snow
1788204141 21.67° C 60% 1025.1 hPa - - - -
1788203241 22.22° C 59% 1025.1 hPa - - - -
1788202341 22.22° C 58% 1024.9 hPa - - - -
1788201440 22.78° C 58% 1024.8 hPa - - - -
1788200540 22.78° C 58% 1024.8 hPa - - - -
1788199640 23.33° C 57% 1024.9 hPa - - - -
1788198740 23.33° C 57% 1024.9 hPa - - - -
1788197840 23.33° C 57% 1024.8 hPa - - - -
1788196941 23.89° C 56% 1024.9 hPa - - - -
1788196039 24.44° C 55% 1024.9 hPa - - - -
1788195139 24.44° C 55% 1024.9 hPa - - - -
1788194239 23.89° C 55% 1025 hPa - - - -
1788193339 25° C 54% 1025 hPa - - - -
1788192439 25° C 54% 1025 hPa - - - -
1788191539 25° C 55% 1025 hPa - - - -
1788190639 25.56° C 54% 1025.1 hPa - - - -
1788189738 25° C 56% 1025.2 hPa - - - -
1788188838 25° C 56% 1025.1 hPa - - - -
1788187938 25° C 55% 1025.2 hPa - - - -
1788187038 25° C 55% 1025.2 hPa - - - -
1788186138 25.56° C 55% 1025.1 hPa - - - -
1788161332 21.11° C 64% 1025.5 hPa - - - -
1788160432 19.44° C 65% 1025.6 hPa - - - -
1788159532 18.89° C 66% 1025.6 hPa - - - -
1788158631 18.33° C 66% 1025.4 hPa - - - -

* Rain since midnight (hover to see other rain measurements)
** Current wind speed in m/s (hover to see current wind gust speed)